Powrót do katalogu

DMSP 5D-2 F11 DEB

AktywnyPO
NORAD 28342·DEBRIS·🇺🇸 United States

Wystrzelony Nov 28, 1991 z Vandenberg Space Force Base

Loading…

Następne Przeloty (najbliższe 24 godziny)

TLE

ŚwieżeSource: Space-Track

Epoka: Sep 13, 2026, 10:11 UTC

1 28342U 91082BF  26256.42475057  .00003419  00000-0  10789-2 0  9998
2 28342  98.9571 331.6900 0065060 203.2953 156.5282 14.39752047151618

Śledź DMSP 5D-2 F11 DEB w czasie rzeczywistym z AllMySat

Download on the App Store